(189) Phthia
ephemeris date magn radius delta ra dec elong phase
Today25 Aug 202614.82.536 AU3.164 AU12h57m-05°32'44.0°16.1°
Opposition14 Jul 202712.42.431 AU1.422 AU19h30m-12°50'171.1°3.7°
(189) Phthia - 2026-08-25
astro.vanbuitenen.nl


 
-1 year
-1 month
-1 day
Now
+1 day
+1 month
+1 year

The interactive orbit chart above shows the body's path through the solar system and its position at the given date. Green and blue lines are shown perpendicular to the ecliptic plane: Green if the path is above the ecliptic plane, blue if it is below. (Left-click and drag to rotate the view; Right-click and drag to move the view; Use scroll wheel to zoom in our out.)

The orbital elements of Phthia are:

            e (Eccentricity)                : 0.0374143
            a (Semimajor axis)              : 2.4499324
            i (Inclination)                 : 5.17370
            Ω (Longitude of ascending node) : 203.26618
            ω (Argument of perihelion)      : 169.01582
            M (Mean anomaly)                : 180.96737
            Epoch                           : 2026 Jun 09

            L (Longitude of perihelion)     : 192.32567
            B (Latitude of perihelion)      : 0.98450
            P (Orbital period in years)     : 3.83            
        

The light curve chart below shows the estimated development of the minor planet's magnitude.


The all-sky chart below shows the path of the minor planet over the same period as the light curve. The current position is marked yellow.





The following chart shows the path of the minor planet in the next few days. The field of view is optimized for (~10x50) binoculars and finderscopes.




Ephemerides:
Date       Time       RA (2000)    DEC (2000)    delta   radius  elong  phase   PA    magn
2026-08-25 00:00 UT   12 57 54.9   -05 32 17     3.164    2.536   44.0   16.1   112   14.8 
2026-08-25 15:08 UT   12 58 53.0   -05 37 41     3.169    2.536   43.7   16.0   112   14.8 
2026-08-26 00:00 UT   12 59 27.2   -05 40 51     3.172    2.536   43.5   15.9   112   14.8 
2026-08-27 00:00 UT   13 00 59.7   -05 49 26     3.181    2.536   42.9   15.7   112   14.8 
2026-08-28 00:00 UT   13 02 32.5   -05 58 01     3.189    2.536   42.3   15.6   112   14.8 
2026-08-29 00:00 UT   13 04 05.7   -06 06 37     3.198    2.535   41.8   15.4   112   14.8 
2026-08-30 00:00 UT   13 05 39.1   -06 15 14     3.206    2.535   41.2   15.2   112   14.8 
2026-08-31 00:00 UT   13 07 12.8   -06 23 51     3.214    2.535   40.7   15.0   112   14.8 
2026-09-01 00:00 UT   13 08 46.9   -06 32 29     3.222    2.535   40.1   14.9   111   14.8 
2026-09-02 00:00 UT   13 10 21.2   -06 41 08     3.230    2.535   39.6   14.7   111   14.8 
2026-09-03 00:00 UT   13 11 55.8   -06 49 46     3.238    2.535   39.0   14.5   111   14.8 
2026-09-04 00:00 UT   13 13 30.7   -06 58 26     3.245    2.535   38.5   14.3   111   14.8 
2026-09-05 00:00 UT   13 15 05.9   -07 07 05     3.253    2.534   37.9   14.2   111   14.8 
2026-09-06 00:00 UT   13 16 41.3   -07 15 45     3.260    2.534   37.4   14.0   111   14.8 
2026-09-07 00:00 UT   13 18 17.1   -07 24 25     3.268    2.534   36.8   13.8   111   14.8 
2026-09-08 00:00 UT   13 19 53.1   -07 33 05     3.275    2.534   36.3   13.6   111   14.7 
2026-09-09 00:00 UT   13 21 29.5   -07 41 45     3.282    2.534   35.7   13.4   111   14.7 
2026-09-10 00:00 UT   13 23 06.1   -07 50 25     3.289    2.534   35.2   13.2   111   14.7 
2026-09-11 00:00 UT   13 24 43.0   -07 59 05     3.296    2.534   34.6   13.1   111   14.7 
2026-09-12 00:00 UT   13 26 20.1   -08 07 44     3.303    2.533   34.1   12.9   110   14.7 
2026-09-13 00:00 UT   13 27 57.6   -08 16 24     3.310    2.533   33.5   12.7   110   14.7 
2026-09-14 00:00 UT   13 29 35.3   -08 25 03     3.317    2.533   33.0   12.5   110   14.7 


    Terminology:
            
    delta:  distance between minor planet and earth in AU
    radius: distance between minor planet and sun in AU
    magn:   magnitude (brightness) estimate    
    ra:     right ascension in hours (24h = 360deg)
    dec:    declination in degrees
    elong:  elongation in degrees (angle sun-earth-minor planet)    
    phase:  phase angle in degrees (angle sun-minor planet-earth)        
    AU:     Astronomical Unit (mean distance between earth and sun: 149597870.7 km
    

Orbital elements provided by the MPC (Minor Planet Center).
Calculations by a modified version of AAPlus, a C# implementation of the AA+ project by PJ Naughter from the algorithms presented in the book "Astronomical Algorithms" by Jean Meeus.
NGC2000 dso catalog and star labels from VizieR as provided by the Strasbourg astronomical Data Center.
Tycho2 catalog from the ESO archive.